When you browse on this site, cookies collect data to enhance your experience and personalize the content and advertising you see.
Visit our Privacy Policy to learn more. By continuing to use the site, you agree to this use of cookies and data.

Météo par heure à Ciudad Bolívar

Ce jour, 4 Août, Mardi

Heure Température Précipitation Vent Pression Humidité
00:00 +27°C° 0.6 mm 1 m/s 755 mmHg 87%
01:00 +27°C° 0.6 mm 1 m/s 755 mmHg 88%
02:00 +27°C° 0 mm 1 m/s 754 mmHg 89%
03:00 +26°C° 0.6 mm 1 m/s 754 mmHg 89%
04:00 +26°C° 0.6 mm 1 m/s 754 mmHg 90%
05:00 +26°C° 0.6 mm 1 m/s 754 mmHg 90%
06:00 +26°C° 2.5 mm 1 m/s 755 mmHg 89%
07:00 +27°C° 2.5 mm 2 m/s 755 mmHg 88%
08:00 +27°C° 2.5 mm 2 m/s 756 mmHg 87%
09:00 +28°C° 1.9 mm 2 m/s 756 mmHg 82%
10:00 +29°C° 1.9 mm 2 m/s 756 mmHg 78%
11:00 +31°C° 1.9 mm 2 m/s 755 mmHg 73%
12:00 +31°C° 2.1 mm 2 m/s 755 mmHg 72%
13:00 +31°C° 2.1 mm 2 m/s 754 mmHg 70%
14:00 +31°C° 2.1 mm 2 m/s 753 mmHg 69%
15:00 +31°C° 1 mm 2 m/s 753 mmHg 71%
16:00 +31°C° 1 mm 2 m/s 752 mmHg 72%
17:00 +30°C° 1 mm 2 m/s 752 mmHg 74%
18:00 +30°C° 0.6 mm 2 m/s 753 mmHg 77%
19:00 +29°C° 0.6 mm 1 m/s 753 mmHg 81%
20:00 +28°C° 0.6 mm 1 m/s 754 mmHg 84%
21:00 +26°C° 0.4 mm 0 m/s 754 mmHg 84%
22:00 +26°C° 0.4 mm 0 m/s 755 mmHg 84%
23:00 +25°C° 0.4 mm 0 m/s 755 mmHg 84%

Demain, 5 Août, Mercredi

Heure Température Précipitation Vent Pression Humidité
00:00 +25°C° 1.5 mm 0 m/s 754 mmHg 86%
01:00 +27°C° 1.5 mm 1 m/s 754 mmHg 88%
02:00 +26°C° 1.5 mm 1 m/s 754 mmHg 90%
03:00 +26°C° 1.2 mm 1 m/s 753 mmHg 90%
04:00 +26°C° 1.2 mm 1 m/s 753 mmHg 90%
05:00 +26°C° 1.2 mm 1 m/s 753 mmHg 91%
06:00 +26°C° 0.9 mm 1 m/s 754 mmHg 89%
07:00 +27°C° 0.9 mm 2 m/s 754 mmHg 87%
08:00 +27°C° 0.9 mm 2 m/s 755 mmHg 85%
09:00 +28°C° 1.6 mm 2 m/s 755 mmHg 82%
10:00 +29°C° 1.6 mm 3 m/s 755 mmHg 79%
11:00 +30°C° 1.6 mm 4 m/s 755 mmHg 76%
12:00 +31°C° 0.6 mm 3 m/s 754 mmHg 72%
13:00 +31°C° 0.6 mm 2 m/s 753 mmHg 68%
14:00 +32°C° 0.6 mm 2 m/s 752 mmHg 65%
15:00 +32°C° 0.4 mm 1 m/s 752 mmHg 65%
16:00 +32°C° 0.4 mm 1 m/s 751 mmHg 66%
17:00 +32°C° 0.4 mm 1 m/s 751 mmHg 66%
18:00 +31°C° 1.7 mm 1 m/s 751 mmHg 72%
19:00 +29°C° 1.7 mm 1 m/s 752 mmHg 77%
20:00 +28°C° 1.7 mm 1 m/s 752 mmHg 83%
21:00 +28°C° 1.4 mm 1 m/s 753 mmHg 83%
22:00 +28°C° 1.4 mm 1 m/s 753 mmHg 83%
23:00 +28°C° 1.4 mm 1 m/s 754 mmHg 83%

Après-demain, 6 Août, Jeudi

Heure Température Précipitation Vent Pression Humidité
00:00 +27°C° 0.7 mm 1 m/s 753 mmHg 86%
01:00 +27°C° 0.7 mm 1 m/s 753 mmHg 88%
02:00 +27°C° 0.7 mm 2 m/s 752 mmHg 90%
03:00 +26°C° 0.3 mm 2 m/s 752 mmHg 90%
04:00 +26°C° 0.3 mm 2 m/s 752 mmHg 91%
05:00 +26°C° 0.3 mm 2 m/s 752 mmHg 91%
06:00 +26°C° 0.1 mm 2 m/s 753 mmHg 90%
07:00 +26°C° 0.1 mm 2 m/s 753 mmHg 90%
08:00 +27°C° 0.1 mm 2 m/s 754 mmHg 89%
09:00 +27°C° 0.3 mm 2 m/s 754 mmHg 86%
10:00 +28°C° 0.3 mm 2 m/s 754 mmHg 83%
11:00 +29°C° 0.3 mm 2 m/s 754 mmHg 81%
12:00 +30°C° 0.2 mm 2 m/s 753 mmHg 76%
13:00 +31°C° 0.2 mm 3 m/s 753 mmHg 71%
14:00 +33°C° 0.2 mm 3 m/s 752 mmHg 66%
15:00 +31°C° 0.1 mm 3 m/s 752 mmHg 67%
16:00 +31°C° 0.1 mm 3 m/s 751 mmHg 68%
17:00 +31°C° 0.1 mm 3 m/s 751 mmHg 69%
18:00 +30°C° 0.2 mm 3 m/s 752 mmHg 74%
19:00 +29°C° 0.2 mm 3 m/s 752 mmHg 80%
20:00 +27°C° 0.2 mm 3 m/s 753 mmHg 85%
21:00 +27°C° 0.9 mm 3 m/s 753 mmHg 86%
22:00 +27°C° 0.9 mm 3 m/s 754 mmHg 87%
23:00 +27°C° 0.9 mm 3 m/s 755 mmHg 88%

7 Août, Vendredi

Heure Température Précipitation Vent Pression Humidité
00:00 +26°C° 0.7 mm 2 m/s 754 mmHg 90%
01:00 +26°C° 0.7 mm 2 m/s 754 mmHg 91%
02:00 +26°C° 0.7 mm 1 m/s 753 mmHg 92%
03:00 +26°C° 0.9 mm 1 m/s 753 mmHg 92%
04:00 +26°C° 0.9 mm 1 m/s 753 mmHg 93%
05:00 +26°C° 0.9 mm 1 m/s 753 mmHg 93%
06:00 +26°C° 0.4 mm 1 m/s 754 mmHg 90%
07:00 +27°C° 0.4 mm 1 m/s 754 mmHg 88%
08:00 +27°C° 0.4 mm 1 m/s 755 mmHg 85%
09:00 +29°C° 0.6 mm 1 m/s 755 mmHg 78%
10:00 +31°C° 0.6 mm 1 m/s 755 mmHg 71%
11:00 +32°C° 0.6 mm 1 m/s 755 mmHg 64%
12:00 +33°C° 0.5 mm 1 m/s 754 mmHg 63%
13:00 +33°C° 0.5 mm 1 m/s 753 mmHg 61%
14:00 +33°C° 0.5 mm 1 m/s 752 mmHg 60%
15:00 +33°C° 0.7 mm 1 m/s 752 mmHg 61%
16:00 +33°C° 0.7 mm 1 m/s 752 mmHg 62%
17:00 +33°C° 0.7 mm 1 m/s 751 mmHg 63%
18:00 +31°C° 0.4 mm 2 m/s 752 mmHg 68%
19:00 +30°C° 0.4 mm 2 m/s 753 mmHg 73%
20:00 +29°C° 0.4 mm 2 m/s 753 mmHg 78%
21:00 +28°C° 0.3 mm 2 m/s 753 mmHg 81%
22:00 +28°C° 0.3 mm 2 m/s 754 mmHg 83%
23:00 +27°C° 0.3 mm 3 m/s 754 mmHg 86%

8 Août, Samedi

Heure Température Précipitation Vent Pression Humidité
00:00 +27°C° 0.2 mm 3 m/s 754 mmHg 87%
01:00 +27°C° 0.2 mm 3 m/s 754 mmHg 88%
02:00 +27°C° 0.2 mm 3 m/s 753 mmHg 89%
03:00 +26°C° 0.2 mm 2 m/s 753 mmHg 90%
04:00 +26°C° 0.2 mm 2 m/s 753 mmHg 91%
05:00 +26°C° 0.2 mm 2 m/s 754 mmHg 92%
06:00 +27°C° 0.2 mm 2 m/s 754 mmHg 89%
07:00 +27°C° 0.2 mm 2 m/s 755 mmHg 86%
08:00 +28°C° 0.2 mm 2 m/s 755 mmHg 84%
09:00 +29°C° 1.4 mm 2 m/s 755 mmHg 79%
10:00 +30°C° 1.4 mm 3 m/s 755 mmHg 74%
11:00 +33°C° 1.4 mm 3 m/s 755 mmHg 69%
12:00 +33°C° 1.5 mm 3 m/s 754 mmHg 69%
13:00 +33°C° 1.5 mm 3 m/s 753 mmHg 68%
14:00 +33°C° 1.5 mm 3 m/s 752 mmHg 68%
15:00 +33°C° 1.6 mm 4 m/s 752 mmHg 71%
16:00 +32°C° 1.6 mm 4 m/s 752 mmHg 74%
17:00 +30°C° 1.6 mm 4 m/s 752 mmHg 77%
18:00 +29°C° 1 mm 4 m/s 752 mmHg 79%
19:00 +28°C° 1 mm 3 m/s 753 mmHg 82%
20:00 +27°C° 1 mm 3 m/s 753 mmHg 84%
21:00 +27°C° 0.2 mm 3 m/s 754 mmHg 86%
22:00 +27°C° 0.2 mm 3 m/s 754 mmHg 87%
23:00 +26°C° 0.2 mm 3 m/s 755 mmHg 88%

9 Août, Dimanche

Heure Température Précipitation Vent Pression Humidité
00:00 +26°C° 0.3 mm 3 m/s 754 mmHg 89%
01:00 +26°C° 0.3 mm 3 m/s 754 mmHg 90%
02:00 +26°C° 0.3 mm 2 m/s 753 mmHg 91%
03:00 +25°C° 0.1 mm 2 m/s 753 mmHg 91%
04:00 +25°C° 0.1 mm 2 m/s 753 mmHg 92%
05:00 +25°C° 0.1 mm 2 m/s 753 mmHg 93%
06:00 +26°C° 0.1 mm 1 m/s 754 mmHg 91%
07:00 +26°C° 0.1 mm 1 m/s 754 mmHg 89%
08:00 +27°C° 0.1 mm 1 m/s 755 mmHg 86%
09:00 +28°C° 0.4 mm 1 m/s 755 mmHg 82%
10:00 +29°C° 0.4 mm 2 m/s 755 mmHg 77%
11:00 +30°C° 0.4 mm 2 m/s 755 mmHg 72%
12:00 +31°C° 2 mm 2 m/s 754 mmHg 71%
13:00 +31°C° 2 mm 2 m/s 753 mmHg 71%
14:00 +32°C° 2 mm 2 m/s 752 mmHg 70%
15:00 +32°C° 0.4 mm 2 m/s 752 mmHg 70%
16:00 +31°C° 0.4 mm 1 m/s 751 mmHg 69%
17:00 +31°C° 0.4 mm 1 m/s 751 mmHg 69%
18:00 +31°C° 0.9 mm 1 m/s 751 mmHg 73%
19:00 +30°C° 0.9 mm 1 m/s 752 mmHg 77%
20:00 +27°C° 0.9 mm 0 m/s 752 mmHg 81%
21:00 +28°C° 1 mm 1 m/s 753 mmHg 83%
22:00 +28°C° 1 mm 1 m/s 753 mmHg 84%
23:00 +28°C° 1 mm 1 m/s 753 mmHg 85%
Voir plus